カタログに戻る

STARLINK-32340

運用中通信VLEO
NORAD 61008·PAYLOAD·🇺🇸 United States

打ち上げ Sep 5, 2024 から Cape Canaveral Space Force Station

Loading…

次のパス (今後24時間)

TLE

最新Source: CelesTrak SupGP

元期: Sep 15, 2026, 02:42 UTC

1 61008C 24158U   26258.11298611 -.00022734  00000+0 -67147-3 0  2582
2 61008  53.1571 262.5500 0001225  93.7420 349.8400 15.34411469    11

AllMySatでSTARLINK-32340をリアルタイム追跡

Download on the App Store